Theta_e
317 309 307 306 298 293 288 289 291 293 294 296 299 300 300 304 300 295 321 333 338 340 343 345 347 347 345 342 342 343 343 341 341 341 343 344 342 339 338 337 337 337 339 339 340 339 339 337 335
312 311 306 299 292 286 287 289 292 294 297 302 302 301 305 303 312 323 327 336 339 341 344 344 344 346 345 342 343 344 343 340 341 341 345 343 341 338 337 336 336 336 337 338 337 338 338 336 336
311 306 302 295 288 287 287 291 294 296 298 298 297 304 306 307 313 325 330 337 339 341 344 342 343 345 345 344 343 343 343 341 341 341 343 342 339 337 336 335 335 336 337 338 337 338 337 336 336
306 301 297 291 288 289 290 295 296 295 296 300 300 302 308 314 321 328 336 338 339 341 342 341 345 345 344 344 343 342 341 341 342 340 342 341 339 336 335 334 334 336 337 336 337 338 338 336 336
301 297 291 289 289 293 292 295 296 295 295 296 299 300 307 318 326 334 335 338 339 340 340 341 344 344 344 344 343 342 341 341 341 339 340 339 336 334 333 333 333 334 334 334 335 336 335 336 335
297 295 289 286 288 291 294 295 295 294 295 296 301 304 309 317 329 332 335 335 339 339 340 341 337 340 342 342 342 341 341 340 340 338 337 336 334 332 331 331 332 333 333 333 334 334 333 332 332
295 291 288 288 288 291 296 298 294 295 295 296 305 301 305 315 327 332 332 334 338 339 339 340 339 337 336 338 338 339 339 338 339 338 337 336 333 331 330 331 330 332 332 332 332 331 331 331 330
298 294 288 290 290 291 295 296 296 296 296 298 305 300 304 317 327 331 333 337 338 337 339 339 338 337 336 334 332 333 334 335 336 335 332 330 329 329 328 328 330 330 331 330 329 329 329 328 326
297 291 287 288 290 292 294 294 295 296 298 299 300 305 308 321 326 330 330 332 335 337 338 337 338 336 334 332 329 329 330 330 330 327 325 322 320 319 319 324 329 330 329 329 328 327 324 322 320
293 289 290 292 290 292 295 295 296 296 295 299 303 307 310 320 324 326 326 326 329 331 335 337 337 336 334 333 328 327 327 326 323 322 319 319 318 318 320 320 325 327 326 327 325 321 316 310 306
293 290 291 292 293 294 296 293 294 294 294 296 299 305 312 316 320 323 326 327 328 330 333 336 337 336 335 332 328 326 325 324 322 320 319 318 317 316 316 316 315 313 312 310 309 307 306 304 304
290 292 293 295 295 294 294 294 292 293 295 296 300 308 313 317 320 321 321 324 325 327 331 334 335 335 336 333 331 329 325 323 322 321 320 318 317 313 313 312 311 309 307 304 303 303 302 301 301
290 292 293 294 293 292 294 292 293 293 296 295 298 310 313 317 319 321 323 321 324 327 330 332 334 334 335 333 332 330 326 324 323 320 320 319 319 316 315 310 309 307 305 303 301 301 300 298 298
293 293 292 293 293 293 291 290 292 292 293 294 300 307 310 313 315 314 315 316 322 327 329 332 333 334 334 333 331 330 328 325 322 321 320 319 320 318 315 309 307 306 304 302 300 299 297 295 296
294 290 290 292 292 292 293 290 292 292 293 292 294 299 305 310 311 314 318 318 320 327 329 330 332 333 333 331 332 330 330 326 323 322 320 319 319 318 313 309 309 306 302 298 296 296 294 292 292
289 287 284 288 292 292 289 285 290 293 291 292 292 291 295 301 308 311 315 317 318 322 326 330 332 331 332 332 333 332 330 327 324 322 321 320 318 318 314 312 311 307 301 296 295 292 290 288 289
287 281 283 288 292 291 288 286 290 293 290 291 291 292 293 293 296 302 310 313 317 319 325 327 330 329 331 331 332 331 330 328 325 323 321 320 319 319 316 313 312 305 300 296 295 293 291 289 287
284 282 282 283 289 289 287 289 292 292 291 292 291 292 292 293 295 298 300 310 314 316 320 326 328 329 330 331 331 331 329 329 328 324 323 321 321 319 316 313 309 303 299 296 293 292 291 289 288
286 284 283 285 290 289 288 289 290 292 292 291 292 292 292 293 298 297 297 297 304 308 314 321 325 328 329 330 329 328 326 327 327 327 324 322 322 318 315 312 308 304 299 295 293 291 289 288 287
284 283 282 286 289 289 287 288 290 290 292 293 294 293 292 292 292 295 296 296 296 303 312 318 323 326 328 330 331 329 328 320 325 326 325 323 322 318 314 311 309 304 299 295 292 291 289 288 288
283 282 282 284 286 285 285 284 286 288 289 291 292 293 294 294 293 293 294 294 294 295 306 314 321 324 327 328 323 310 311 309 310 310 312 321 321 317 314 312 310 305 301 296 292 292 291 287 287
282 288 287 285 283 280 283 277 282 286 289 289 291 291 292 292 293 293 293 293 294 296 301 311 318 321 324 325 321 321 320 318 314 313 311 311 318 317 315 313 311 307 303 299 295 293 292 290 287
286 289 286 285 281 280 279 279 281 283 285 289 291 291 291 291 291 293 294 294 294 296 303 310 315 318 317 320 322 321 320 317 308 308 310 309 307 309 313 312 311 309 306 302 297 293 292 291 290
290 288 286 284 281 277 280 281 278 282 286 286 289 291 294 293 294 294 294 295 296 301 305 309 312 311 312 314 313 316 313 308 307 306 308 306 306 305 304 306 309 309 307 303 297 295 294 292 293
286 284 277 276 275 276 279 279 282 286 288 287 290 291 293 293 293 294 294 295 296 299 303 307 309 309 310 308 308 310 311 311 311 307 307 303 300 298 300 302 303 304 305 303 299 296 294 293 292
284 285 278 272 273 276 280 278 283 288 290 292 292 292 294 292 293 294 294 294 296 298 298 302 304 306 308 306 305 305 306 306 305 305 304 305 303 303 302 300 301 302 302 301 299 296 295 294 293
286 283 287 280 271 275 279 282 287 291 291 292 293 293 292 293 293 294 294 294 295 297 298 300 301 302 303 304 302 302 302 301 300 299 297 297 295 294 296 298 298 298 298 298 298 296 294 294 293
288 290 282 280 271 271 276 278 282 285 288 291 291 291 291 292 292 293 293 294 295 295 297 298 299 300 300 300 300 300 299 298 297 296 295 293 292 291 290 292 294 294 294 295 296 294 293 292 292
286 285 285 284 280 275 272 278 284 285 290 290 290 292 291 292 293 293 293 294 295 295 296 296 296 297 297 298 297 297 296 295 295 294 293 292 290 289 288 287 287 289 290 291 292 292 291 291 291
288 286 286 281 277 279 278 281 289 290 290 291 290 291 292 292 293 292 292 293 293 293 294 295 295 295 296 296 296 296 295 294 293 292 292 290 289 287 286 286 285 286 288 289 290 290 290 289 289
Wind_Speed
6 5 3 6 5 6 1 3 0 3 1 1 1 5 7 4 3 4 1 5 13 12 8 9 13 14 14 13 13 11 12 13 14 14 12 17 18 16 17 16 16 15 18 16 18 19 19 19 20
3 2 5 3 6 3 5 3 5 3 4 7 3 3 5 2 1 4 6 6 16 12 9 8 11 15 14 14 13 12 12 13 14 13 14 17 17 16 17 16 16 15 17 16 16 19 19 19 19
2 3 4 5 4 5 5 4 5 3 5 3 3 4 3 3 1 7 2 11 12 11 9 9 12 15 14 13 12 12 13 13 13 13 15 16 16 17 17 16 16 15 17 15 19 18 18 19 19
1 5 5 5 3 3 4 6 5 4 1 5 4 5 2 2 7 7 11 12 11 10 8 10 12 14 14 13 13 13 13 13 13 14 14 16 16 16 16 16 15 16 16 16 16 18 20 19 19
5 3 5 3 3 2 2 3 7 4 3 3 2 3 2 2 3 13 12 11 12 9 7 9 11 13 14 13 13 13 13 13 13 14 14 15 15 15 16 15 15 15 16 15 16 20 19 19 20
4 3 5 2 3 1 1 3 4 4 3 4 5 5 4 2 8 8 11 9 10 11 8 7 9 11 12 13 13 13 13 13 14 14 14 15 15 15 15 15 15 16 16 15 18 19 19 19 19
6 5 4 4 3 2 6 7 4 6 6 4 9 6 3 2 6 9 9 7 8 10 9 6 6 8 10 10 10 11 12 12 12 13 13 14 13 14 14 14 15 16 16 16 18 18 18 18 19
6 5 4 2 4 4 5 6 5 6 6 3 4 5 5 5 9 7 7 10 11 9 12 11 6 6 6 6 9 9 10 11 11 12 11 11 12 12 11 10 13 16 16 17 18 18 18 18 18
3 6 2 3 5 3 5 4 2 1 6 1 3 7 3 11 10 9 5 6 9 10 12 11 12 7 6 5 6 8 9 9 10 10 11 8 5 6 7 8 12 15 16 17 17 18 18 19 18
5 4 9 4 2 4 5 3 7 4 4 2 1 0 3 11 12 14 10 9 9 12 13 13 12 11 7 5 5 5 5 4 4 5 6 4 5 5 6 7 11 13 14 16 16 16 15 12 5
3 6 6 3 2 2 4 2 2 6 3 7 10 6 7 6 10 13 11 11 13 11 9 13 13 12 12 7 4 3 3 3 3 5 5 5 4 4 4 3 3 4 8 4 6 6 5 7 5
4 3 5 4 2 0 3 2 2 6 7 3 9 9 11 12 15 14 12 10 10 11 12 12 13 15 12 7 7 6 5 4 4 4 6 6 4 4 4 3 4 4 3 6 4 4 6 7 7
3 3 3 2 2 2 1 3 4 7 8 1 5 8 14 13 14 11 10 6 7 11 12 13 13 13 14 12 9 8 7 5 5 4 5 4 6 6 5 4 4 4 4 5 5 5 6 6 6
4 3 2 2 1 2 2 2 0 4 2 4 7 11 11 11 15 6 7 9 10 11 12 12 13 13 14 12 12 9 8 8 6 6 7 5 5 5 5 4 4 4 4 4 4 5 5 5 6
2 3 3 4 3 3 3 6 9 5 2 2 8 9 8 11 5 13 16 14 15 13 11 13 13 13 14 12 11 10 9 9 9 7 9 7 6 7 6 5 4 4 4 7 6 6 6 6 6
4 5 2 2 4 1 3 10 6 5 5 8 7 8 8 11 12 11 9 11 9 10 13 13 12 13 14 12 11 8 8 9 9 8 8 9 7 8 8 7 6 6 5 5 5 5 6 4 5
6 3 4 7 5 3 3 8 4 3 1 4 6 8 9 9 10 13 11 12 10 13 13 14 14 14 15 12 11 10 10 8 8 8 8 10 10 10 8 7 6 7 6 6 7 5 4 6 4
7 4 3 4 4 3 3 12 10 6 4 8 8 9 9 10 15 13 13 15 12 11 12 14 13 14 14 10 10 8 7 8 8 9 9 13 10 11 9 6 9 8 7 6 6 8 5 5 6
5 3 4 3 1 4 8 9 11 9 7 9 11 11 12 12 14 9 9 9 9 7 9 14 14 14 12 10 10 9 9 8 8 8 12 13 12 12 12 8 10 8 9 9 10 8 9 3 6
3 3 3 4 1 4 4 11 11 8 9 11 11 12 13 8 8 8 10 9 10 14 16 15 16 15 15 12 11 8 7 3 5 8 11 14 14 13 11 12 11 12 10 11 12 11 7 4 7
3 5 3 6 3 2 5 9 8 6 5 7 11 13 11 13 10 9 10 9 9 10 14 16 17 17 15 13 7 4 5 3 2 0 3 8 12 14 14 14 12 13 11 11 14 13 13 6 8
4 7 4 3 3 4 1 9 6 6 8 6 12 11 13 8 7 8 9 9 10 14 8 12 13 13 13 14 12 14 10 9 5 6 5 5 10 12 14 14 14 14 11 12 13 12 11 8 11
7 5 4 2 3 2 2 2 8 3 6 11 11 9 10 10 9 9 9 8 5 5 7 6 7 10 11 14 14 12 11 5 2 2 5 5 4 5 10 12 13 14 11 13 16 16 13 10 9
9 8 7 5 3 4 8 8 5 6 8 4 6 5 8 8 7 5 3 3 2 2 5 7 9 7 11 10 9 12 10 7 5 4 5 4 4 4 5 5 9 10 11 14 14 15 16 14 10
3 7 2 3 1 9 2 2 6 7 10 6 9 9 9 5 5 6 7 6 5 5 4 5 7 8 7 8 7 8 8 8 8 6 6 5 3 3 6 8 7 7 8 9 11 12 13 13 14
9 10 8 10 6 5 3 9 8 9 7 5 6 6 5 1 3 4 6 5 6 7 5 5 6 6 6 6 7 5 5 3 3 4 4 4 5 6 6 8 7 7 8 8 10 9 9 11 10
7 8 6 7 3 4 6 8 10 9 4 5 8 9 9 5 3 4 5 5 4 4 4 5 5 5 6 5 5 5 5 5 6 6 3 3 3 3 5 6 7 7 7 7 9 7 10 10 11
7 9 4 3 3 4 6 5 9 2 4 6 8 9 8 3 2 3 3 2 2 3 3 5 4 3 3 4 4 3 4 3 3 3 5 5 4 4 6 5 5 5 5 6 8 6 6 9 8
4 4 3 5 7 7 3 9 6 5 4 5 4 6 6 4 2 2 3 3 3 4 4 3 3 3 2 3 3 3 3 4 3 4 5 5 4 6 6 6 6 6 5 5 6 6 6 9 9
2 6 8 6 5 4 4 13 3 6 6 6 3 2 3 3 4 4 3 2 4 3 4 2 2 2 2 2 4 5 5 5 5 6 6 5 6 5 6 6 6 6 6 6 8 8 7 10 10
Wind_Direction
319 318 61 40 57 63 197 234 354 147 110 318 59 142 160 92 150 211 316 144 132 140 149 153 137 133 129 127 125 117 114 115 112 105 107 105 99 92 90 86 85 89 88 85 81 88 88 84 81
343 316 39 82 88 73 268 261 166 208 152 125 90 76 54 87 116 101 112 169 144 143 147 146 139 135 134 135 133 125 118 118 112 114 107 107 100 96 94 90 89 92 91 82 92 89 85 84 82
324 28 84 91 108 167 193 203 187 170 170 167 82 55 118 163 44 158 156 144 141 140 145 150 142 141 138 140 133 126 124 123 117 113 101 107 103 99 97 94 94 97 86 82 97 92 89 87 84
33 9 37 84 187 220 200 177 193 146 175 74 125 65 3 249 160 172 142 140 139 141 143 154 148 146 141 139 135 130 127 128 121 120 107 106 102 101 101 100 99 97 91 85 92 92 89 88 87
31 56 61 55 295 288 220 189 156 161 147 102 127 172 353 41 108 133 139 144 145 138 142 153 147 148 144 143 141 138 135 130 125 122 117 114 111 111 109 107 105 105 96 92 98 92 88 89 83
36 92 69 178 260 324 54 156 171 154 143 146 81 114 184 3 133 150 144 150 154 144 149 151 147 145 146 148 146 141 137 134 130 127 124 118 117 116 114 111 111 111 100 101 102 97 91 87 83
115 81 173 172 210 160 200 150 202 157 147 213 157 129 259 205 172 149 148 140 147 143 147 146 149 150 147 147 144 142 139 136 132 128 125 119 120 118 116 112 115 110 106 104 102 100 93 89 85
103 91 130 243 194 226 176 170 157 151 205 94 163 182 210 205 151 133 141 154 149 150 164 166 152 150 146 150 144 142 139 138 133 120 112 107 105 105 106 106 117 113 110 109 106 99 94 87 81
118 64 165 218 163 231 166 141 219 73 114 168 182 155 234 140 129 133 141 146 165 164 167 176 170 155 145 143 151 140 140 130 119 116 114 102 107 109 102 117 116 118 114 112 106 99 94 86 76
89 117 208 213 216 209 183 154 172 142 136 217 196 283 120 133 155 170 178 174 176 177 175 173 177 169 150 151 143 138 134 127 124 128 125 115 118 120 113 111 113 108 111 110 106 100 90 75 62
150 179 196 242 250 222 159 105 175 130 238 213 198 174 164 154 175 174 190 188 184 179 173 174 172 173 168 156 150 136 130 128 125 132 124 116 110 111 111 109 87 87 75 73 83 83 69 74 71
135 206 168 164 256 190 170 126 206 195 218 244 212 168 166 175 183 187 191 194 178 180 184 176 176 174 174 158 166 162 154 150 151 157 148 144 137 135 136 132 128 113 109 105 94 91 87 76 67
158 180 180 134 138 283 67 251 256 250 251 344 137 153 182 189 198 203 198 191 179 190 189 185 177 178 181 170 171 166 170 170 165 158 155 162 157 161 151 142 128 121 116 118 109 106 103 90 76
206 140 150 189 204 259 197 287 71 291 234 198 161 194 195 196 203 184 184 197 196 196 195 186 187 178 180 185 176 176 174 172 167 167 173 174 168 160 160 130 121 109 106 97 102 111 107 87 82
106 109 338 207 200 243 167 287 237 247 334 229 213 221 221 225 212 213 207 205 199 203 192 191 189 183 181 185 183 178 178 175 176 180 174 172 170 164 137 136 134 129 102 103 97 82 72 85 76
70 49 89 300 147 323 137 267 272 319 229 237 235 234 238 239 229 230 223 219 199 194 190 192 191 188 185 187 188 186 182 180 181 179 174 178 167 161 157 160 159 139 128 119 113 106 88 62 86
11 193 192 316 196 131 158 265 267 42 70 267 245 247 248 254 243 236 220 220 207 199 195 195 190 190 189 186 190 190 188 188 181 175 178 180 171 172 169 168 155 144 133 131 135 117 107 111 90
192 201 214 232 212 142 182 264 276 272 291 282 281 268 244 249 247 233 217 218 214 200 200 201 193 192 190 183 187 192 189 194 184 184 185 177 183 174 167 157 151 144 139 135 129 129 121 129 125
141 155 190 233 194 164 223 258 268 281 297 261 262 256 260 238 247 239 235 216 211 205 191 199 193 193 182 189 188 192 197 194 193 189 186 188 183 178 172 165 156 162 162 157 146 124 129 100 129
123 156 243 295 286 171 282 265 265 267 256 245 251 259 247 259 272 255 240 222 200 209 204 200 201 190 191 192 196 199 187 183 201 199 189 184 182 177 177 175 176 172 154 154 161 156 153 119 188
186 173 206 222 348 345 344 282 257 275 251 274 266 253 262 247 257 259 257 234 217 213 201 200 198 192 190 187 158 83 81 73 100 253 148 180 187 183 184 182 177 174 167 176 172 175 171 150 197
211 197 184 174 87 244 13 282 294 255 266 286 276 267 262 248 241 246 246 251 219 222 205 205 194 182 181 173 175 184 194 189 197 181 172 173 185 193 188 188 183 181 177 178 187 184 183 162 178
211 129 148 70 104 350 299 310 272 308 277 262 257 281 281 282 245 259 256 253 262 210 197 184 162 165 160 174 184 188 201 195 125 95 162 172 169 189 196 193 188 187 187 189 183 180 190 191 167
149 85 54 65 80 291 189 180 238 199 217 272 277 289 325 337 337 343 351 30 57 90 149 148 148 145 157 166 168 186 179 151 145 156 179 194 199 209 187 218 199 192 207 184 188 185 191 190 192
117 93 8 344 32 235 351 179 266 272 249 233 273 310 324 348 14 4 27 34 48 78 97 121 134 149 136 136 153 170 174 172 179 170 181 163 169 189 205 194 191 194 190 195 189 194 190 201 194
188 157 168 196 197 251 84 237 256 242 297 293 298 296 296 346 8 18 32 30 43 56 63 83 108 130 138 162 175 166 166 159 168 178 178 181 192 205 191 199 202 202 192 182 187 189 206 193 207
190 204 167 105 21 54 219 289 296 275 291 3 359 1 335 315 348 14 31 34 44 71 81 120 138 150 161 153 155 182 176 180 200 201 177 181 175 192 184 196 198 195 194 188 184 194 197 199 206
167 148 89 5 157 249 262 262 230 175 229 23 10 3 345 34 35 31 35 4 27 49 70 75 84 119 133 146 179 190 198 210 209 181 212 211 209 187 189 196 193 195 197 191 190 196 192 196 206
149 179 165 142 155 185 248 256 218 231 139 104 26 3 339 352 11 330 342 356 28 36 48 65 82 102 125 153 160 183 212 209 200 218 230 220 203 200 200 200 198 197 201 199 202 208 194 205 210
293 213 171 171 221 238 163 252 122 128 131 122 67 26 310 333 349 341 354 15 49 54 37 33 59 67 237 178 181 210 203 209 218 226 226 205 219 206 208 194 198 201 195 187 199 203 194 203 207